2023/01/29 00:00:00,156.7,-3.3
2023/01/29 00:10:00,156.7,-3.4
2023/01/29 00:20:00,156.5,-3.4
2023/01/29 00:30:00,156.3,-3.5
2023/01/29 00:40:00,156.2,-3.5
2023/01/29 00:50:00,156.4,-3.2
2023/01/29 01:00:00,156.7,-3.3
2023/01/29 01:10:00,157.4,-3.4
2023/01/29 01:20:00,157.6,-3.6
2023/01/29 01:30:00,157.6,-3.6
2023/01/29 01:40:00,157.5,-3.5
2023/01/29 01:50:00,157.8,-3.4
2023/01/29 02:00:00,158.0,-3.3
2023/01/29 02:10:00,157.9,-3.4
2023/01/29 02:20:00,157.6,-3.4
2023/01/29 02:30:00,157.6,-3.4
2023/01/29 02:40:00,157.5,-3.3
2023/01/29 02:50:00,157.6,-3.3
2023/01/29 03:00:00,157.8,-3.4
2023/01/29 03:10:00,157.7,-3.5
2023/01/29 03:20:00,157.5,-3.3
2023/01/29 03:30:00,158.1,-3.4
2023/01/29 03:40:00,158.6,-3.5
2023/01/29 03:50:00,158.4,-3.2
2023/01/29 04:00:00,158.3,-2.9
2023/01/29 04:10:00,158.5,-3.5
2023/01/29 04:20:00,158.7,-3.5
2023/01/29 04:30:00,158.9,-3.5
2023/01/29 04:40:00,158.7,-3.3
2023/01/29 04:50:00,158.6,-3.5
2023/01/29 05:00:00,158.4,-3.4
2023/01/29 05:10:00,158.2,-3.5
2023/01/29 05:20:00,158.0,-3.3
2023/01/29 05:30:00,157.9,-2.8
2023/01/29 05:40:00,157.9,-3.3
2023/01/29 05:50:00,157.8,-3.5
2023/01/29 06:00:00,157.6,-3.5
2023/01/29 06:10:00,157.3,-3.4
2023/01/29 06:20:00,157.1,-3.6
2023/01/29 06:30:00,156.9,-3.6
2023/01/29 06:40:00,156.8,-3.6
2023/01/29 06:50:00,156.6,-3.6
2023/01/29 07:00:00,156.4,-3.8
2023/01/29 07:10:00,156.1,-3.8
2023/01/29 07:20:00,155.9,-3.9
2023/01/29 07:30:00,156.5,-3.7
2023/01/29 07:40:00,156.5,-3.4
2023/01/29 07:50:00,156.2,-3.5
2023/01/29 08:00:00,156.1,-3.4
2023/01/29 08:10:00,155.9,-2.9
2023/01/29 08:20:00,155.7,-2.9
2023/01/29 08:30:00,155.7,-2.4
2023/01/29 08:40:00,155.7,-2.2
2023/01/29 08:50:00,155.7,-1.8
2023/01/29 09:00:00,155.7,-1.3
2023/01/29 09:10:00,155.7,-0.6
2023/01/29 09:20:00,155.7,-0.4
2023/01/29 09:30:00,156.0,-0.2
2023/01/29 09:40:00,155.9,-0.1
2023/01/29 09:50:00,155.8, 0.3
2023/01/29 10:00:00,155.6, 0.1
2023/01/29 10:10:00,155.4, 0.0
2023/01/29 10:20:00,155.0, 0.3
2023/01/29 10:30:00,154.9, 0.9
2023/01/29 10:40:00,154.6, 1.0
2023/01/29 10:50:00,154.5, 0.7
2023/01/29 11:00:00,154.3, 1.1
2023/01/29 11:10:00,154.1, 1.1
2023/01/29 11:20:00,153.9, 1.3
2023/01/29 11:30:00,153.8, 1.0
2023/01/29 11:40:00,153.7, 1.1
2023/01/29 11:50:00,153.6, 1.7
2023/01/29 12:00:00,153.7, 1.0
2023/01/29 12:10:00,153.6, 1.4
2023/01/29 12:20:00,153.5, 1.2
2023/01/29 12:30:00,153.0, 1.1
2023/01/29 12:40:00,152.8, 1.7
2023/01/29 12:50:00,152.3, 2.4
2023/01/29 13:00:00,151.7, 2.2
2023/01/29 13:10:00,151.1, 2.0
2023/01/29 13:20:00,150.9, 1.8
2023/01/29 13:30:00,151.1, 1.4
2023/01/29 13:40:00,150.9, 1.1
2023/01/29 13:50:00,150.6, 1.6
2023/01/29 14:00:00,150.3, 1.8
2023/01/29 14:10:00,150.0, 1.8
2023/01/29 14:20:00,149.9, 1.5
2023/01/29 14:30:00,149.8, 1.6
2023/01/29 14:40:00,149.8, 1.7
2023/01/29 14:50:00,149.6, 1.4
2023/01/29 15:00:00,149.4, 1.4
2023/01/29 15:10:00,149.1, 1.6
2023/01/29 15:20:00,148.7, 1.6
2023/01/29 15:30:00,148.5, 1.5
2023/01/29 15:40:00,148.3, 1.3
2023/01/29 15:50:00,148.3, 1.2
2023/01/29 16:00:00,148.3, 1.5
2023/01/29 16:10:00,148.2, 1.8
2023/01/29 16:20:00,148.0, 1.9
2023/01/29 16:30:00,147.9, 1.4
2023/01/29 16:40:00,147.8, 1.2
2023/01/29 16:50:00,147.8, 0.8
2023/01/29 17:00:00,147.7, 0.6
2023/01/29 17:10:00,147.5,-0.1
2023/01/29 17:20:00,147.5,-0.1
2023/01/29 17:30:00,147.4,-0.4
2023/01/29 17:40:00,147.3,-0.6
2023/01/29 17:50:00,147.2,-0.7
2023/01/29 18:00:00,147.1,-1.2
2023/01/29 18:10:00,146.9,-1.8
2023/01/29 18:20:00,146.9,-2.2
2023/01/29 18:30:00,146.8,-2.8
2023/01/29 18:40:00,146.7,-2.9
2023/01/29 18:50:00,146.6,-2.9
2023/01/29 19:00:00,146.4,-3.3
2023/01/29 19:10:00,146.2,-3.4
2023/01/29 19:20:00,146.1,-3.4
2023/01/29 19:30:00,146.0,-3.4
2023/01/29 19:40:00,145.9,-3.1
2023/01/29 19:50:00,145.7,-3.5
2023/01/29 20:00:00,145.6,-3.4
2023/01/29 20:10:00,145.4,-3.0
2023/01/29 20:20:00,145.2,-3.5
2023/01/29 20:30:00,145.1,-3.2
2023/01/29 20:40:00,144.9,-3.3
2023/01/29 20:50:00,144.9,-3.4
2023/01/29 21:00:00,144.7,-3.6
2023/01/29 21:10:00,144.5,-3.6
2023/01/29 21:20:00,144.5,-3.8
2023/01/29 21:30:00,144.4,-3.8
2023/01/29 21:40:00,144.2,-3.8
2023/01/29 21:50:00,144.2,-3.6
2023/01/29 22:00:00,144.2,-3.1
2023/01/29 22:10:00,144.2,-3.3
2023/01/29 22:20:00,144.2,-3.0
2023/01/29 22:30:00,144.1,-2.8
2023/01/29 22:40:00,144.0,-3.0
2023/01/29 22:50:00,144.0,-2.6
2023/01/29 23:00:00,143.9,-2.5
2023/01/29 23:10:00,143.8,-2.6
2023/01/29 23:20:00,143.8,-2.7
2023/01/29 23:30:00,143.8,-2.4
2023/01/29 23:40:00,143.8,-2.3
2023/01/29 23:50:00,143.9,-2.5
